Location: York
(31.8935°S, 116.7682°E)
Time: 15:33:51
(UTC+08:00)

A-11 Canister half - All Passes

Search period start: 25 September 2022 00:00
Search period end: 05 October 2022 00:00
Orbit: 1515 x 1684 km, 47.2° (Epoch: 24 September)

Date Brightness Start Highest point End Pass type
(mag) Time Alt. Az. Time Alt. Az. Time Alt. Az.
25 Sep - 07:30:24 10° NNE 07:34:27 13° ENE 07:38:32 10° E daylight
25 Sep - 09:28:31 10° NNW 09:38:00 63° NE 09:47:54 10° ESE daylight
25 Sep - 11:33:49 10° W 11:43:22 51° SSW 11:53:13 10° SE daylight
25 Sep - 13:41:46 10° WSW 13:50:39 33° S 13:59:39 10° ESE daylight
25 Sep - 15:48:19 10° SW 15:58:06 47° SSE 16:07:47 10° E daylight
25 Sep - 17:53:34 10° SW 18:03:45 72° NW 18:13:41 10° NE daylight
25 Sep - 20:01:35 10° W 20:07:33 17° WNW 20:13:27 10° NNW visible
26 Sep - 07:08:44 10° NE 07:11:37 12° ENE 07:14:32 10° ENE daylight
26 Sep - 09:05:42 10° NNW 09:15:06 59° NE 09:24:52 10° ESE daylight
26 Sep - 11:10:47 10° WNW 11:20:20 53° SSW 11:30:14 10° SE daylight
26 Sep - 13:18:41 10° WSW 13:27:33 33° S 13:36:32 10° ESE daylight
26 Sep - 15:25:20 10° SW 15:35:02 45° SSE 15:44:41 10° E daylight
26 Sep - 17:30:34 10° SW 17:40:48 76° NW 17:50:49 10° NE daylight
26 Sep - 19:38:10 10° W 19:44:42 19° WNW 19:51:08 10° NNW visible
27 Sep - 08:42:55 10° NNW 08:52:11 55° NE 09:01:51 10° ESE daylight
27 Sep - 10:47:44 10° WNW 10:57:18 55° SSW 11:07:15 10° SE daylight
27 Sep - 12:55:35 10° WSW 13:04:26 33° S 13:13:26 10° ESE daylight
27 Sep - 15:02:22 10° SW 15:11:58 44° SSE 15:21:34 10° E daylight
27 Sep - 17:07:35 10° SW 17:17:50 81° NW 17:27:55 10° NE daylight
27 Sep - 19:14:50 10° W 19:21:49 21° NW 19:28:44 10° NNW visible
28 Sep - 08:20:09 10° NNW 08:29:18 51° NE 08:38:48 10° ESE daylight
28 Sep - 10:24:42 10° WNW 10:34:17 58° SSW 10:44:15 10° SE daylight
28 Sep - 12:32:29 10° WSW 12:41:19 34° S 12:50:20 10° ESE daylight
28 Sep - 14:39:22 10° SW 14:48:54 42° SSE 14:58:26 10° E daylight
28 Sep - 16:44:36 10° SW 16:54:54 85° NW 17:05:01 10° NE daylight
28 Sep - 18:51:32 10° WSW 18:58:58 23° NW 19:06:17 10° N visible
29 Sep - 07:57:24 10° NNW 08:06:24 48° NE 08:15:46 10° ESE daylight
29 Sep - 10:01:41 10° WNW 10:11:17 60° SSW 10:21:17 10° SE daylight
29 Sep - 12:09:22 10° WSW 12:18:12 34° S 12:27:14 10° SE daylight
29 Sep - 14:16:22 10° SW 14:25:50 41° SSE 14:35:18 10° E daylight
29 Sep - 16:21:38 10° SW 16:31:55 89° NW 16:42:04 10° NE daylight
29 Sep - 18:28:18 10° WSW 18:36:05 26° NW 18:43:47 10° N visible
30 Sep - 07:34:41 10° NNW 07:43:31 44° NE 07:52:42 10° ESE daylight
30 Sep - 09:38:41 10° WNW 09:48:17 63° SSW 09:58:17 10° SE daylight
30 Sep - 11:46:16 10° WSW 11:55:06 34° S 12:04:10 10° SE daylight
30 Sep - 13:53:22 10° SW 14:02:45 40° SSE 14:12:09 10° E daylight
30 Sep - 15:58:40 10° SW 16:08:57 87° SE 16:19:07 10° NE daylight
30 Sep - 18:05:06 10° WSW 18:13:12 28° NW 18:21:15 10° N daylight
01 Oct - 07:12:00 10° NNW 07:20:39 41° NE 07:29:37 10° ESE daylight
01 Oct - 09:15:41 10° WNW 09:25:17 66° SSW 09:35:19 10° SE daylight
01 Oct - 11:23:10 10° WSW 11:32:00 35° S 11:41:05 10° SE daylight
01 Oct - 13:30:23 10° SW 13:39:39 39° SSE 13:49:01 10° E daylight
01 Oct - 15:35:42 10° SW 15:45:58 82° SE 15:56:10 10° NE daylight
01 Oct - 17:41:54 10° WSW 17:50:19 30° NW 17:58:39 10° N daylight
02 Oct - 06:49:19 10° NNW 06:57:47 38° NE 07:06:33 10° ESE daylight
02 Oct - 08:52:42 10° WNW 09:02:18 70° SW 09:12:20 10° SE daylight
02 Oct - 11:00:04 10° WSW 11:08:55 35° S 11:18:01 10° SE daylight
02 Oct - 13:07:22 10° SW 13:16:34 38° SSE 13:25:52 10° E daylight
02 Oct - 15:12:43 10° SW 15:22:59 79° SE 15:33:11 10° ENE daylight
02 Oct - 17:18:46 10° WSW 17:27:27 33° NW 17:36:01 10° N daylight
03 Oct - 06:26:40 10° N 06:34:55 35° NE 06:43:26 10° ESE daylight
03 Oct - 08:29:44 10° WNW 08:39:20 73° SW 08:49:21 10° SE daylight
03 Oct - 10:36:57 10° WSW 10:45:49 36° SSW 10:54:58 10° SE daylight
03 Oct - 12:44:21 10° SW 12:53:29 37° SSE 13:02:42 10° ESE daylight
03 Oct - 14:49:46 10° SW 15:00:00 75° SE 15:10:11 10° ENE daylight
03 Oct - 16:55:39 10° WSW 17:04:33 36° NW 17:13:23 10° N daylight
04 Oct - 06:04:03 10° N 06:12:04 32° NE 06:20:18 10° ESE daylight
04 Oct - 08:06:47 10° WNW 08:16:22 77° SW 08:26:23 10° SE daylight
04 Oct - 10:13:52 10° W 10:22:44 37° SSW 10:31:55 10° SE daylight
04 Oct - 12:21:20 10° SW 12:30:23 36° SSE 12:39:33 10° ESE daylight
04 Oct - 14:26:48 10° SW 14:37:00 71° SE 14:47:11 10° ENE daylight
04 Oct - 16:32:33 10° WSW 16:41:40 38° NW 16:50:41 10° NNE daylight
